Location: Al Mulaqqa?ah
(24.1833°N, 32.8833°E)
Time: 01:10:48
(UTC+00:00)

CZ-4 R/B - Visible Passes

Search period start: 24 January 2022 00:00
Search period end: 03 February 2022 00:00
Orbit: 531 x 594 km, 97.8° (Epoch: 23 January)

Date Brightness Start Highest point End Pass type
(mag) Time Alt. Az. Time Alt. Az. Time Alt. Az.
24 Jan 3.1 15:56:12 10° E 15:57:29 11° ENE 15:58:47 10° NE visible
24 Jan 3.2 17:28:45 10° SSW 17:32:06 29° W 17:35:30 10° NW visible
25 Jan 3.1 15:55:54 10° E 15:57:09 11° ENE 15:58:23 10° NE visible
25 Jan 3.2 17:28:22 10° SSW 17:31:45 29° W 17:35:10 10° NW visible
26 Jan 3.2 15:55:36 10° E 15:56:48 11° ENE 15:57:59 10° NE visible
26 Jan 3.2 17:28:00 10° SSW 17:31:23 30° W 17:34:50 10° NW visible
27 Jan 3.2 15:55:19 10° E 15:56:27 11° ENE 15:57:35 10° NE visible
27 Jan 3.1 17:27:38 10° SSW 17:31:02 30° W 17:34:30 10° NW visible
28 Jan 3.2 15:55:01 10° E 15:56:06 11° ENE 15:57:11 10° NE visible
28 Jan 3.1 17:27:15 10° SSW 17:30:41 30° W 17:34:11 10° NW visible
29 Jan 3.2 15:54:44 10° E 15:55:44 11° ENE 15:56:46 10° NE visible
29 Jan 3.1 17:26:53 10° SSW 17:30:20 31° W 17:33:50 10° NW visible
30 Jan 3.2 15:54:26 10° E 15:55:24 11° ENE 15:56:22 10° NE visible
30 Jan 3.1 17:26:31 10° SSW 17:29:58 31° W 17:33:31 10° NW visible
31 Jan 3.1 17:26:08 10° SSW 17:29:37 32° W 17:33:11 10° NW visible
01 Feb 3.0 17:25:46 10° SSW 17:29:16 32° W 17:32:50 10° NW visible
02 Feb 3.0 17:25:23 10° SSW 17:28:54 33° W 17:32:31 10° NNW visible
